Moffett NAS, CA

12:13 AM PDT on April 20, 2018 (GMT -0700)
Moffett Federal Air Field

Weather History for KNUQ - April, 2013

Change the Weather History Date:

Thursday, April 18, 2013

  Actual Average Record
Temperature  
Mean Temperature 62 °F 59 °F  
Max Temperature 77 °F 69 °F 86 °F (2016)
Min Temperature 46 °F 50 °F 42 °F (2004)
Degree Days  
Heating Degree Days 3    
Month to date heating degree days 90  
Since 1 July heating degree days 2002  
Cooling Degree Days 0    
Month to date cooling degree days 5  
Year to date cooling degree days 6  
Growing Degree Days 10 (Base 50)    
Moisture  
Dew Point 39 °F    
Average Humidity 44    
Maximum Humidity 67    
Minimum Humidity 20    
Precipitation  
Precipitation 0.00 in 0.03 in 0.36 in (1967)
Month to date precipitation 0.27 0.64  
Year to date precipitation 1.78 8.72  
Since 1 July precipitation 9.55  
Sea Level Pressure  
Sea Level Pressure 30.25 in    
Wind  
Wind Speed 5 mph (North)    
Max Wind Speed 18 mph    
Max Gust Speed 22 mph    
Visibility 10 miles    
Events      
T = Trace of Precipitation, MM = Missing Value Source: NWS Daily Summary

Daily Weather History Graph

Daily Weather History Graph

Search for Another Location

Airport or City:

Astronomy

Apr. 18, 2013 Rise Set
Actual Time 6:28 AM PDT 7:46 PM PDT
Civil Twilight 6:01 AM PDT 8:13 PM PDT
Nautical Twilight 5:29 AM PDT 8:46 PM PDT
Astronomical Twilight 4:55 AM PDT 9:20 PM PDT
Moon 12:47 PM PDT (4/18) 2:02 AM PDT (4/18)
Length of Visible Light 14h 11m
Length of Day
13h 17m
First Quarter, 53% of the Moon is Illuminated
Apr 18
First Quarter
Apr 25
Full
May 2
Last Quarter
May 9
New
May 17
First Quarter

Hourly Weather History & Observations

Time (PDT) Temp. Dew Point Humidity Pressure Visibility Wind Dir Wind Speed Gust Speed Precip Events Conditions
12:56 AM 55.0 °F 33.1 °F 43% 30.25 in 10.0 mi Calm Calm - N/A   Clear
1:56 AM 51.1 °F 35.1 °F 54% 30.25 in 10.0 mi Calm Calm - N/A   Clear
2:56 AM 53.1 °F 37.0 °F 55% 30.24 in 10.0 mi Calm Calm - N/A   Clear
3:56 AM 48.9 °F 37.0 °F 64% 30.25 in 10.0 mi Calm Calm - N/A   Clear
4:56 AM 48.0 °F 37.0 °F 66% 30.25 in 10.0 mi Calm Calm - N/A   Clear
5:56 AM 48.0 °F 36.0 °F 63% 30.25 in 10.0 mi Calm Calm - N/A   Clear
6:56 AM 46.9 °F 36.0 °F 66% 30.27 in 10.0 mi ESE 3.5 mph - N/A   Clear
7:56 AM 53.1 °F 37.0 °F 55% 30.29 in 10.0 mi Calm Calm - N/A   Clear
8:56 AM 59.0 °F 39.0 °F 48% 30.28 in 10.0 mi NNE 3.5 mph - N/A   Clear
9:56 AM 64.0 °F 39.9 °F 41% 30.29 in 10.0 mi North 4.6 mph - N/A   Clear
10:56 AM 68.0 °F 34.0 °F 28% 30.29 in 10.0 mi North 5.8 mph - N/A   Clear
11:56 AM 71.1 °F 33.1 °F 25% 30.28 in 10.0 mi North 9.2 mph - N/A   Clear
12:56 PM 71.1 °F 30.0 °F 22% 30.27 in 10.0 mi Calm Calm - N/A   Clear
1:56 PM 73.9 °F 30.9 °F 21% 30.25 in 10.0 mi Variable 3.5 mph - N/A   Clear
2:56 PM 75.0 °F 33.1 °F 22% 30.24 in 10.0 mi NNW 8.1 mph - N/A   Clear
3:56 PM 75.0 °F 34.0 °F 22% 30.22 in 10.0 mi NNW 8.1 mph - N/A   Clear
4:56 PM 73.9 °F 41.0 °F 30% 30.20 in 10.0 mi NNW 10.4 mph - N/A   Clear
5:56 PM 69.1 °F 48.9 °F 49% 30.20 in 10.0 mi North 15.0 mph - N/A   Clear
6:56 PM 64.9 °F 46.9 °F 52% 30.21 in 10.0 mi North 16.1 mph - N/A   Clear
7:56 PM 61.0 °F 46.9 °F 60% 30.22 in 10.0 mi NNW 13.8 mph - N/A   Clear
8:56 PM 59.0 °F 46.9 °F 64% 30.24 in 10.0 mi NNW 4.6 mph - N/A   Clear
9:56 PM 57.9 °F 46.0 °F 65% 30.25 in 10.0 mi WNW 3.5 mph - N/A   Clear
10:56 PM 57.9 °F 46.9 °F 67% 30.26 in 10.0 mi Calm Calm - N/A   Clear
11:56 PM 57.0 °F 46.9 °F 69% 30.24 in 10.0 mi Calm Calm - N/A   Clear